Regional Weather Roundup
Issued by NWS

Home | Current Version | Previous Version | Text Only | Print | Product List | Glossary Off
Versions: 1 2 3 4 5 6 7 8 9 10 11 12 13 14 15 16 17 18 19 20 21 22 23 24 25 26 27 28 29 30 31 32 33 34 35 36 37 38 39 40 41 42 43 44 45 46 47 48 49 50

000
ASUS43 KMKX 101221
RWRWI

WISCONSIN REGIONAL WEATHER ROUNDUP
NATIONAL WEATHER SERVICE MILWAUKEE/SULLIVAN WI
700 AM CDT THU JUL 10 2014

NOTE: "FAIR" INDICATES FEW OR NO CLOUDS BELOW 12,000 FEET WITH NO
SIGNIFICANT WEATHER AND/OR OBSTRUCTIONS TO VISIBILITY.

WIZ001-002-006>008-014>016-023>028-101300-
NORTHWEST WISCONSIN

CITY           SKY/WX    TMP DP  RH WIND       PRES   REMARKS
SUPERIOR ARPT  CLOUDY    55  54  96 CALM      30.07R
6HR MIN TEMP:  44; 6HR MAX TEMP:  55;

ASHLAND        MOSUNNY   53  51  93 CALM      30.10R
6HR MIN TEMP:  44; 6HR MAX TEMP:  53;

HAYWARD        FAIR      57  53  86 CALM      30.09S
6HR MIN TEMP:  50; 6HR MAX TEMP:  57;

SIREN          FAIR      59  55  86 S7        30.07S
6HR MIN TEMP:  54; 6HR MAX TEMP:  59;

RICE LAKE      FAIR      57  53  85 CALM      30.10S
6HR MIN TEMP:  52; 6HR MAX TEMP:  57;

LADYSMITH      FAIR      56  51  83 E6        30.13R
6HR MIN TEMP:  53; 6HR MAX TEMP:  56;

EAU CLAIRE     FAIR      59  56  89 CALM      30.08S
6HR MIN TEMP:  53; 6HR MAX TEMP:  59;

MENOMONIE      FAIR      59  56  91 CALM      30.08S
6HR MIN TEMP:  56; 6HR MAX TEMP:  60;

NEW RICHMOND   FAIR      60  57  92 CALM      30.07S
6HR MIN TEMP:  56; 6HR MAX TEMP:  60;

OSCEOLA        FAIR      61  59  95 E5        30.09S
6HR MIN TEMP:  56; 6HR MAX TEMP:  61;

$$

WIZ003>005-009-010-017-018-101300-
NORTH CENTRAL WISCONSIN

CITY           SKY/WX    TMP DP  RH WIND       PRES   REMARKS
WOODRUFF       FAIR      54  48  79 CALM      30.14R
6HR MIN TEMP:  43; 6HR MAX TEMP:  54;

RHINELANDER    FAIR      49  47  93 CALM      30.15R
6HR MIN TEMP:  41; 6HR MAX TEMP:  49;

EAGLE RIVER    FAIR      48  48 100 CALM      30.15R
6HR MIN TEMP:  38; 6HR MAX TEMP:  48;

LAND O LAKES   FAIR      47  47  97 CALM      30.15S
6HR MIN TEMP:  37; 6HR MAX TEMP:  47;

PHILLIPS       FAIR      54  51  89 CALM      30.12S
6HR MIN TEMP:  47; 6HR MAX TEMP:  54;

TOMAHAWK       FAIR      48  47  97 CALM      30.15R
6HR MIN TEMP:  39; 6HR MAX TEMP:  48;

MEDFORD        FAIR      55  51  86 CALM      30.13S
6HR MIN TEMP:  48; 6HR MAX TEMP:  55;

MERRILL        FAIR      49  47  95 CALM      30.15R
6HR MIN TEMP:  43; 6HR MAX TEMP:  49;

$$

WIZ029-030-035-036-043>047-101300-
CENTRAL WISCONSIN

CITY           SKY/WX    TMP DP  RH WIND       PRES   REMARKS
WAUSAU         FAIR      53  50  89 E5        30.13R
6HR MIN TEMP:  48; 6HR MAX TEMP:  53;

MOSINEE        SUNNY     52  52 100 CALM      30.15R
MARSHFIELD     FAIR      57  53  86 SE3       30.13R
6HR MIN TEMP:  52; 6HR MAX TEMP:  57;

STEVENS POINT  FAIR      51  49  92 CALM      30.15R
6HR MIN TEMP:  45; 6HR MAX TEMP:  51;

WAUPACA        FAIR      54  53  94 CALM      30.15R
6HR MIN TEMP:  49; 6HR MAX TEMP:  54;

WAUTOMA        FAIR      54  52  93 CALM      30.15R
6HR MIN TEMP:  48; 6HR MAX TEMP:  54;

WISC RAPIDS    FAIR      57  53  86 CALM      30.14R
6HR MIN TEMP:  48; 6HR MAX TEMP:  57;

CAMP DOUGLAS   SUNNY     54  45  71 E2        30.12R
$$

WIZ011>013-019>022-031-037>040-048>050-101300-
NORTHEAST WISCONSIN

CITY           SKY/WX    TMP DP  RH WIND       PRES   REMARKS
ANTIGO         FAIR      51  49  94 CALM      30.16R
6HR MIN TEMP:  42; 6HR MAX TEMP:  51;

STURGEON BAY   FAIR      59  52  77 S6        30.17R
6HR MIN TEMP:  52; 6HR MAX TEMP:  57;

GREEN BAY      FAIR      57  55  93 CALM      30.15R
6HR MIN TEMP:  51; 6HR MAX TEMP:  57;

MANITOWOC      FOG       52  51  97 CALM      30.16R VSB 1/4
6HR MIN TEMP:  49; 6HR MAX TEMP:  54;

APPLETON       SUNNY     61  54  77 CALM      30.15R
CLINTONVILLE   FAIR      54  52  94 CALM      30.14S
OSHKOSH        FAIR      58  54  86 S3        30.14R
6HR MIN TEMP:  52; 6HR MAX TEMP:  58;

$$

WIZ032>034-041-042-053>061-101300-
SOUTHWEST WISCONSIN

CITY           SKY/WX    TMP DP  RH WIND       PRES   REMARKS
LA CROSSE      FAIR      61  54  77 E8        30.09R
6HR MIN TEMP:  59; 6HR MAX TEMP:  62;

SPARTA         PTSUNNY   54  52  90 CALM      30.12R
6HR MIN TEMP:  47; 6HR MAX TEMP:  54;

VIROQUA        FAIR      60  55  83 SE7       30.12R
6HR MIN TEMP:  57; 6HR MAX TEMP:  61;

BOSCOBEL       CLOUDY    59  56  89 CALM      30.13R
6HR MIN TEMP:  54; 6HR MAX TEMP:  59;

PRAIRIE DU CHI FAIR      60  57  89 E3        30.11R
6HR MIN TEMP:  58; 6HR MAX TEMP:  62;

PLATTEVILLE    FAIR      62  56  80 E7        30.13R
6HR MIN TEMP:  59; 6HR MAX TEMP:  62;

$$

WIZ056-057-062-063-064-067-068-101300-
SOUTH CENTRAL WISCONSIN

CITY           SKY/WX    TMP DP  RH WIND       PRES   REMARKS
BARABOO/DELLS  FAIR      58  54  87 CALM      30.13S
6HR MIN TEMP:  52; 6HR MAX TEMP:  58;

LONE ROCK      FAIR      60  55  83 CALM      30.13R
6HR MIN TEMP:  55; 6HR MAX TEMP:  60;

WATERTOWN      FAIR      58  56  92 CALM      30.14R
6HR MIN TEMP:  52; 6HR MAX TEMP:  58;

MADISON        FAIR      59  54  83 CALM      30.13S
6HR MIN TEMP:  53; 6HR MAX TEMP:  59;

MIDDLETON      FAIR      57  57 100 CALM      30.13F
6HR MIN TEMP:  51; 6HR MAX TEMP:  57;

MONROE         FAIR      61  54  77 SE3       30.13S
JANESVILLE     SUNNY     57  54  88 CALM      30.13R
$$

WIZ051-052-058>065-066-070>072-101300-
SOUTHEAST WISCONSIN

CITY           SKY/WX    TMP DP  RH WIND       PRES   REMARKS
MILWAUKEE      FAIR      62  56  80 CALM      30.15R
6HR MIN TEMP:  57; 6HR MAX TEMP:  62;

WAUKESHA       SUNNY     55  54  94 CALM      30.16R
MILWAUKEE/TIMM SUNNY     59  54  82 CALM      30.16R
RACINE         FAIR      61  58  90 CALM      30.16R
6HR MIN TEMP:  54; 6HR MAX TEMP:  61;

BURLINGTON     FAIR      53  53 100 CALM      30.15R
6HR MIN TEMP:  49; 6HR MAX TEMP:  53;

KENOSHA        FAIR      59  58  96 CALM      30.15R
6HR MIN TEMP:  51; 6HR MAX TEMP:  59;

FOND DU LAC    FAIR      57  53  86 CALM      30.15R
6HR MIN TEMP:  51; 6HR MAX TEMP:  57;

SHEBOYGAN      FAIR      56  55  97 CALM      30.16R
6HR MIN TEMP:  50; 6HR MAX TEMP:  55;

WEST BEND      FAIR      54  50  87 CALM      30.16R
JUNEAU         FAIR      58  42  54 E3        30.16R
6HR MIN TEMP:  54; 6HR MAX TEMP:  58;

$$

LSZ147-162-101300-
LAKE SUPERIOR

STATION/POSITION TIME  TEMP    WIND        PRES    WAVE
                       AIR SEA DIR/SP/G            HT/PER
                 (UTC) (F)     (DEG/KT/KT) (MB)    (FT/S)
W MID LAKE BUOY  1150   46 38  160/  6/  6 1019.2R   0
DEVILS ISLAND    1200   60     210/  2/  3 1018.9R
PORT WING        1140   59      40/  2/  3 1018.3R
SAXON HARBOR     1100          200/  5/  7 1019.0R
$$

LMZ867-665-643>646-101300-
LAKE MICHIGAN

STATION/POSITION TIME  TEMP    WIND        PRES    WAVE
                       AIR SEA DIR/SP/G            HT/PER
                 (UTC) (F)     (DEG/KT/KT) (MB)    (FT/S)
N MID LAKE BUOY  1150   56 54  200/  4/  4 1020.7R   0
NORTHPORT PIER   1100   58     200/  2/  5 1020.7R
KEWAUNEE LAKESHO 1200   51     170/  1/  2 1021.6R
SHEBOYGAN LAKESH 1200   55      CALM  /  1 1021.5R
PORT WASHINGTON  1100   55      80/  1/  2 1021.3R
MILWAUKEE LAKESH 1200   60      10/  2/  2   N/A
S MID LAKE BUOY  1150   57 55   40/  6/  6 1021.2R   0
KENOSHA   LAKESH 1200   61      CALM  /  1   N/A
$$

TC  - TEMPERATURE IN CELSIUS
VSB - VISIBILITY IN STATUTE MILES
WCI - WIND CHILL INDEX
HX  - HEAT INDEX



USA.gov is the U.S. government's official web portal to all federal, state and local government web resources and services.